This is the latest recevied weather packets stored in our database for station/object KB3VSP. If no packets are shown the sender has not sent any weather packets the latest 10 day(s).
| Time | Temp. | Humidity | Pressure | Rain* | Wind** | Luminosity | Snow |
|---|---|---|---|---|---|---|---|
| 1776990140 | 22.22° C | 61% | 1012.6 hPa | 0 mm | - | 0 W/m² | - |
| 1776989835 | 22.78° C | 63% | 1012.8 hPa | 0 mm | - | 0 W/m² | - |
| 1776989530 | 22.78° C | 63% | 1012.6 hPa | 0 mm | - | 0 W/m² | - |
| 1776989228 | 22.78° C | 62% | 1012.6 hPa | 0 mm | - | 0 W/m² | - |
| 1776988923 | 22.78° C | 61% | 1012.7 hPa | 0 mm | - | 1 W/m² | - |
| 1776988621 | 23.33° C | 59% | 1012.6 hPa | 0 mm | - | 3 W/m² | - |
| 1776988317 | 23.33° C | 58% | 1012.6 hPa | 0 mm | - | 7 W/m² | - |
| 1776988014 | 23.33° C | 56% | 1012.5 hPa | 0 mm | - | 12 W/m² | - |
| 1776987710 | 23.89° C | 52% | 1012.6 hPa | 0 mm | - | 16 W/m² | - |
| 1776987407 | 23.89° C | 50% | 1012.3 hPa | 0 mm | - | 14 W/m² | - |
| 1776987104 | 23.89° C | 50% | 1012.3 hPa | 0 mm | - | 11 W/m² | - |
| 1776986799 | 24.44° C | 48% | 1012.3 hPa | 0 mm | - | 13 W/m² | - |
| 1776986495 | 24.44° C | 48% | 1012.4 hPa | 0 mm | - | 13 W/m² | - |
| 1776986192 | 24.44° C | 47% | 1012.1 hPa | 0 mm | - | 14 W/m² | - |
| 1776985889 | 24.44° C | 46% | 1012.1 hPa | 0 mm | - | 12 W/m² | - |
| 1776985587 | 25° C | 45% | 1011.8 hPa | 0 mm | - | 12 W/m² | - |
| 1776985282 | 25.56° C | 44% | 1012 hPa | 0 mm | - | 16 W/m² | - |
| 1776984978 | 25.56° C | 43% | 1012.1 hPa | 0 mm | - | 37 W/m² | - |
| 1776984674 | 25.56° C | 44% | 1012 hPa | 0 mm | - | 60 W/m² | - |
| 1776984370 | 25.56° C | 44% | 1012.1 hPa | 0 mm | - | 33 W/m² | - |
| 1776984067 | 25.56° C | 47% | 1012.1 hPa | 0 mm | - | 77 W/m² | - |
| 1776983761 | 25.56° C | 47% | 1012.2 hPa | 0 mm | - | 92 W/m² | - |
| 1776983457 | 25.56° C | 45% | 1012.2 hPa | 0 mm | - | 95 W/m² | - |
| 1776983155 | 25.56° C | 45% | 1012.5 hPa | 0 mm | - | 103 W/m² | - |
| 1776982852 | 25.56° C | 45% | 1012.4 hPa | 0 mm | - | 72 W/m² | - |
* Rain latest hour (hover to see other rain measurements)
** Current wind speed in m/s (hover to see current wind gust speed)